This demonstration page uses our WeatherBlox Daily Observations layout. Learn more.

Left ArrowRight Arrow

Hourly Observations for July 18, 2018

Temp ( °F °C ) Dew Point ( °F °C ) Humidity (%) Winds ( mph kmh ) Pressure ( in mb ) Visibility ( mi km ) Precip ( " mm )
12:16 am 00:16 Clear 64 18 61 16 88 88 N 7 11 30.09 1019 10 16.0934 N/A
12:37 am 00:37 Clear 63 17 63 17 100 100 NNW 5 7 30.09 1019 10 16.0934 N/A
12:56 am 00:56 Clear 64 18 61 16 88 88 N 5 7 30.09 1019 10 16.0934 N/A
1:16 am 01:16 Clear 63 17 61 16 94 94 N 5 7 30.09 1019 10 16.0934 N/A
1:37 am 01:37 Clear 63 17 59 15 88 88 N 6 9 30.09 1019 10 16.0934 N/A
1:56 am 01:56 Clear 63 17 59 15 88 88 N 5 7 30.09 1019 10 16.0934 N/A
2:17 am 02:17 Clear 61 16 59 15 94 94 N 5 7 30.09 1019 10 16.0934 N/A
2:37 am 02:37 Clear 59 15 59 15 100 100 N N/A 30.09 1019 10 16.0934 N/A
2:56 am 02:56 Clear 57 14 57 14 100 100 N N/A 30.09 1019 10 16.0934 N/A
3:17 am 03:17 Clear 57 14 57 14 100 100 N N/A 30.09 1019 10 16.0934 N/A
3:37 am 03:37 Clear 57 14 57 14 100 100 N N/A 30.09 1019 10 16.0934 N/A
3:56 am 03:56 Clear 55 13 55 13 100 100 N N/A 30.09 1019 10 16.0934 N/A
4:17 am 04:17 Clear 59 15 57 14 94 94 N N/A 30.09 1019 10 16.0934 N/A
4:36 am 04:36 Clear 59 15 57 14 94 94 NNW 3 6 30.09 1019 10 16.0934 N/A
4:57 am 04:57 Clear 57 14 55 13 94 94 WNW 3 6 30.09 1019 10 16.0934 N/A
5:17 am 05:17 Clear 57 14 57 14 100 100 NNW 6 9 30.09 1019 10 16.0934 N/A
5:36 am 05:36 Clear 55 13 55 13 100 100 NNW 5 7 30.09 1019 10 16.0934 N/A
5:57 am 05:57 Clear 55 13 55 13 100 100 N N/A 30.09 1019 10 16.0934 N/A
6:16 am 06:16 Clear 57 14 57 14 100 100 N 3 6 30.09 1019 10 16.0934 N/A
6:36 am 06:36 Sunny 54 12 54 12 100 100 N N/A 30.12 1020 10 16.0934 N/A
6:57 am 06:57 Sunny 57 14 57 14 100 100 N 3 6 30.09 1019 10 16.0934 N/A
7:16 am 07:16 Sunny 57 14 57 14 100 100 N 5 7 30.09 1019 10 16.0934 N/A
7:36 am 07:36 Sunny 57 14 57 14 100 100 N 3 6 30.09 1019 10 16.0934 N/A
7:57 am 07:57 Sunny 59 15 59 15 100 100 N 3 6 30.09 1019 10 16.0934 N/A
8:16 am 08:16 Sunny 61 16 59 15 94 94 N 5 7 30.09 1019 10 16.0934 N/A
8:36 am 08:36 Sunny 63 17 61 16 94 94 N 5 7 30.09 1019 10 16.0934 N/A
8:57 am 08:57 Sunny 64 18 61 16 88 88 NNE 5 7 30.09 1019 10 16.0934 N/A
9:16 am 09:16 Sunny 64 18 61 16 88 88 N N/A 30.09 1019 10 16.0934 N/A
9:37 am 09:37 Sunny 66 19 61 16 83 83 NNE 5 7 30.09 1019 10 16.0934 N/A
9:56 am 09:56 Sunny 66 19 63 17 88 88 N 5 7 30.09 1019 10 16.0934 N/A
10:16 am 10:16 Sunny 68 20 63 17 83 83 NNE 3 6 30.09 1019 10 16.0934 N/A
10:37 am 10:37 Sunny 70 21 64 18 83 83 N N/A 30.09 1019 10 16.0934 N/A
10:56 am 10:56 Sunny 70 21 64 18 83 83 N N/A 30.09 1019 10 16.0934 N/A
11:17 am 11:17 Sunny 72 22 64 18 78 78 N N/A 30.06 1018 10 16.0934 N/A
11:36 am 11:36 Sunny 73 23 64 18 74 74 NE 5 7 30.06 1018 10 16.0934 N/A
11:56 am 11:56 Sunny 75 24 64 18 69 69 N 6 9 30.06 1018 10 16.0934 N/A
12:17 pm 12:17 Sunny 75 24 66 19 74 74 NNE 5 7 30.06 1018 10 16.0934 N/A
12:36 pm 12:36 Sunny 77 25 66 19 69 69 NE 6 9 30.06 1018 10 16.0934 N/A
12:57 pm 12:57 Sunny 77 25 64 18 65 65 ENE 6 9 30.06 1018 10 16.0934 N/A
1:17 pm 13:17 Sunny 79 26 66 19 65 65 NE 6 9 30.06 1018 10 16.0934 N/A
1:36 pm 13:36 Sunny 79 26 64 18 61 61 ENE 8 13 30.06 1018 10 16.0934 N/A
1:57 pm 13:57 Sunny 79 26 68 20 70 70 N N/A 30.06 1018 10 16.0934 N/A
2:16 pm 14:16 Sunny 79 26 66 19 65 65 ENE 5 7 30.06 1018 10 16.0934 N/A
2:37 pm 14:37 Partly Cloudy 81 27 68 20 66 66 NE 6 9 30.03 1017 10 16.0934 N/A
2:56 pm 14:56 Partly Cloudy 79 26 66 19 65 65 NNE 6 9 30.06 1018 10 16.0934 N/A
3:16 pm 15:16 Sunny 81 27 66 19 62 62 NE 3 6 30.03 1017 10 16.0934 N/A
3:37 pm 15:37 Partly Cloudy 81 27 66 19 62 62 ENE 6 9 30.03 1017 10 16.0934 N/A
3:56 pm 15:56 Partly Cloudy 82 28 66 19 58 58 NNE 6 9 30.03 1017 10 16.0934 N/A
4:16 pm 16:16 Sunny 82 28 64 18 55 55 N N/A 30.03 1017 10 16.0934 N/A
4:37 pm 16:37 Partly Cloudy 82 28 64 18 55 55 NE 6 9 30.03 1017 10 16.0934 N/A
4:56 pm 16:56 Partly Cloudy 81 27 63 17 54 54 N N/A 30.03 1017 10 16.0934 N/A
5:16 pm 17:16 Sunny 82 28 66 19 58 58 E 7 11 30 1016 10 16.0934 N/A
5:36 pm 17:36 Sunny 79 26 63 17 58 58 NE 5 7 30 1016 10 16.0934 N/A
5:57 pm 17:57 Sunny 81 27 64 18 58 58 NNE 5 7 30 1016 10 16.0934 N/A
6:17 pm 18:17 Sunny 81 27 63 17 54 54 NNE 6 9 30 1016 10 16.0934 N/A
6:36 pm 18:36 Sunny 81 27 64 18 58 58 NE 5 7 30 1016 10 16.0934 N/A
6:57 pm 18:57 Sunny 81 27 64 18 58 58 ENE 5 7 30 1016 10 16.0934 N/A
7:17 pm 19:17 Sunny 81 27 66 19 62 62 NE 5 7 30 1016 10 16.0934 N/A
7:36 pm 19:36 Sunny 79 26 68 20 70 70 NE 3 6 30 1016 10 16.0934 N/A
7:57 pm 19:57 Sunny 79 26 68 20 70 70 NE 5 7 30 1016 10 16.0934 N/A
8:16 pm 20:16 Sunny 77 25 68 20 74 74 NE 3 6 30 1016 10 16.0934 N/A
8:36 pm 20:36 Sunny 75 24 68 20 78 78 NE 5 7 30 1016 10 16.0934 N/A
8:57 pm 20:57 Sunny 72 22 70 21 94 94 ENE 3 6 30 1016 10 16.0934 N/A
9:16 pm 21:16 Clear 68 20 66 19 94 94 NE 5 7 30.03 1017 10 16.0934 N/A
9:36 pm 21:36 Clear 68 20 66 19 94 94 ENE 6 9 30.03 1017 10 16.0934 N/A
9:56 pm 21:56 Clear 66 19 64 18 94 94 ENE 5 7 30.03 1017 10 16.0934 N/A
10:16 pm 22:16 Clear 66 19 64 18 94 94 E 5 7 30.03 1017 10 16.0934 N/A
10:37 pm 22:37 Clear 66 19 64 18 94 94 E 3 6 30.03 1017 10 16.0934 N/A
10:56 pm 22:56 Clear 66 19 64 18 94 94 N 3 6 30.03 1017 10 16.0934 N/A
11:16 pm 23:16 Partly Cloudy 66 19 64 18 94 94 N N/A 30.03 1017 10 16.0934 N/A
11:37 pm 23:37 Clear 63 17 63 17 100 100 NNE 3 6 30.03 1017 10 16.0934 N/A
11:56 pm 23:56 Clear 64 18 64 18 100 100 N N/A 30.06 1018 10 16.0934 N/A

Powered by AerisWeather